Versailles, IN (47042)

11:31 AM EDT on August 28, 2016 (GMT -0400)
APRSWXNET | | Change Station
Active Advisory: Heat Advisory Active Notice: Local Storm Report

Elev 954 ft 39.07 °N, 85.25 °W | Updated 22 minutes ago

Scattered Clouds
Scattered Clouds
84 °F
Feels Like 92 °F
N
3
Wind Variable Wind from North
Gusts 4.0 mph

Today
High -- | Low -- °F
--% Chance of Precip.
Yesterday
High -- | Low -- °F
Precip. -- in
Pressure 30.19 in
Visibility 10.0 miles
Clouds Few 12000 ft
Scattered Clouds 15000 ft
Heat Index 92 °F
Dew Point 75 °F
Humidity 74%
Rainfall in
Snow Depth Not available.
7:06 AM 8:16 PM
Waning Crescent, 15% visible
METAR KCVG 281452Z 02005KT 10SM FEW120 SCT150 29/22 A3022 RMK AO2 SLP223 T02940217 51011
Pressure 30.19 in
Visibility 10.0 miles
Clouds Few 12000 ft
Scattered Clouds 15000 ft
Heat Index 92 °F
Dew Point 75 °F
Humidity 74%
Rainfall in
Snow Depth Not available.
7:06 AM 8:16 PM
Waning Crescent, 15% visible
METAR KCVG 281452Z 02005KT 10SM FEW120 SCT150 29/22 A3022 RMK AO2 SLP223 T02940217 51011

10-Day Weather Forecast

Almanac

Astronomy

Aug. 28, 2016 Rise Set
Actual Time
Civil Twilight
Nautical Twilight
Astronomical Twilight
Moon
Length of Visible Light
Length of Day
Tomorrow will be .
, % of the Moon is Illuminated

Today's Extremes

State Highs State Lows

Community

WunderPhotos

Upload Photos

1,935,613 photos uploaded!

WunderBlog® & News

Nearby

Air Quality

  Air Quality AQ Index Pollutant
Not available.

Snow Depth

Station Depth Elevation

Earthquake Activity

City Distance Mag. Time & Date
Minimum magnitude displayed is 2.5.

Coastal Water Temperatures

Place Temperature

Stations

Nearby Weather Stations

Station Location Temp. Windchill Dew Point Humidity Wind Precip. Elev Updated Type
                   

Watches & Warnings

Heat Advisory
Issued: 11:22 AM EDT Aug. 28, 2016 – National Weather Service

... Heat advisory remains in effect until 9 PM EDT this evening...

* heat index values... up to 101 due to temperatures in the lower
90s... and dewpoints in the lower 70s.

* Timing... this afternoon into early evening.

* Impacts... heat stroke... heat exhaustion and other heat
related illnesses will be possible... especially if you spend a
significant amount of time outdoors... or are involved in any
strenuous outdoor activity.

Precautionary/preparedness actions...

Reduce outdoor activities... especially from mid-morning through
the afternoon. Wear light weight and loose fitting clothing and
drink plenty of water. If possible... spend more time in air
conditioned or well ventilated places.